weerbeeld Almere Meer informatie weerbeeld Almere


Onweer radar Meer informatie blitzortung!


Regen radar Meer informatie rain snow radar


Apparatuur in gebruik:

Davis VP2

Meteohub

ALIX 1D

Web-Oke


Het weer levert geen direct gevaar op.    Er zijn geen waarschuwingen afgegeven.

Weather Underground Historische gegevens

Dagelijkse Samenvatting augustus 20, 2018 Eenheden:  Metrisch    Engels   Beide
« Vorige Dag
Volgende Dag »
Dagelijkse Wekelijkse Maandelijkse Jaarlijkse Aangepaste
  Huidig: Hoog: Laag: Gemiddeld:
Temperatuur: -6.1 °C -17.8 °C -7.1 °C -6.9 °C
Dauwpunt: -7.8 °C -17.8 °C -8.2 °C -7.7 °C
Vochtigheid: 82 % Humidity % 82 % 91 %
Wind snelheid: 2.6 km/h 0 km/h 0 km/h 9.5 km/h
Windvlaag: 18.2 km/h 0 km/h - -
Wind:West - - WSW
Luchtdruk: 34520.3 hPa 0 hPa 34428.8 hPa -
Neerslag: 0 mm      
Historical Graphs
 
 
Tabel voor augustus 20, 2018
Tijd Temperatuur Dauwpunt Luchtdruk Wind Wind snelheid Windvlaag Vochtigheid Regenval per uur
-17.8 °C -17.8 °C 0 hPa Calm     Humidity % 0 mm
00:02 -7.1 °C -7.8 °C 34452.6 hPa SSW 12.9 km/h 28.5 km/h 92 % 0 mm
00:07 -7.1 °C -7.8 °C 34452.6 hPa WSW 7.7 km/h 23.3 km/h 92 % 0 mm
00:12 -7 °C -7.7 °C 34452.6 hPa WSW 10.3 km/h 23.3 km/h 93 % 0 mm
00:17 -7 °C -7.7 °C 34452.6 hPa WSW 23.3 km/h 25.9 km/h 93 % 0 mm
00:22 -7 °C -7.7 °C 34452.6 hPa SW 10.3 km/h 25.9 km/h 93 % 0 mm
00:27 -7 °C -7.7 °C 34452.6 hPa West 10.3 km/h 25.9 km/h 93 % 0 mm
00:32 -7 °C -7.7 °C 34452.6 hPa WSW 12.9 km/h 25.9 km/h 93 % 0 mm
00:37 -7 °C -7.7 °C 34452.6 hPa SW 5.1 km/h 23.3 km/h 93 % 0 mm
00:42 -6.9 °C -7.6 °C 34452.6 hPa WSW 20.8 km/h 23.3 km/h 93 % 0 mm
00:47 -6.9 °C -7.6 °C 34452.6 hPa SSW 10.3 km/h 20.8 km/h 93 % 0 mm
00:52 -6.9 °C -7.6 °C 34452.6 hPa SSW 12.9 km/h 20.8 km/h 93 % 0 mm
00:57 -6.9 °C -7.6 °C 34452.6 hPa WSW 10.3 km/h 25.9 km/h 93 % 0 mm
01:02 -6.9 °C -7.6 °C 34452.6 hPa SW 7.7 km/h 25.9 km/h 93 % 0 mm
01:07 -6.9 °C -7.6 °C 34452.6 hPa SW 18.2 km/h 23.3 km/h 93 % 0 mm
01:12 -6.8 °C -7.5 °C 34452.6 hPa SSW 18.2 km/h 25.9 km/h 93 % 0 mm
01:17 -6.8 °C -7.5 °C 34452.6 hPa West 5.1 km/h 25.9 km/h 93 % 0 mm
01:22 -6.8 °C -7.6 °C 34452.6 hPa SW 10.3 km/h 25.9 km/h 92 % 0 mm
01:27 -6.8 °C -7.6 °C 34442.4 hPa SW 7.7 km/h 25.9 km/h 92 % 0 mm
01:32 -6.8 °C -7.5 °C 34442.4 hPa SW 7.7 km/h 23.3 km/h 92 % 0 mm
01:37 -6.8 °C -7.5 °C 34442.4 hPa SW 10.3 km/h 23.3 km/h 92 % 0 mm
01:42 -6.8 °C -7.5 °C 34442.4 hPa SSW 10.3 km/h 23.3 km/h 92 % 0 mm
01:47 -6.8 °C -7.5 °C 34442.4 hPa WSW 12.9 km/h 23.3 km/h 92 % 0 mm
01:52 -6.8 °C -7.5 °C 34442.4 hPa SW 7.7 km/h 20.8 km/h 92 % 0 mm
01:57 -6.8 °C -7.5 °C 34442.4 hPa SSW 15.6 km/h 20.8 km/h 92 % 0 mm
02:02 -6.8 °C -7.4 °C 34442.4 hPa SW 20.8 km/h 20.8 km/h 93 % 0 mm
02:07 -6.8 °C -7.4 °C 34442.4 hPa WSW 5.1 km/h 23.3 km/h 93 % 0 mm
02:12 -6.8 °C -7.4 °C 34442.4 hPa SW 7.7 km/h 23.3 km/h 93 % 0 mm
02:17 -6.8 °C -7.5 °C 34442.4 hPa SW 10.3 km/h 23.3 km/h 93 % 0 mm
02:22 -6.8 °C -7.4 °C 34442.4 hPa SSW 18.2 km/h 23.3 km/h 93 % 0 mm
02:32 -6.8 °C -7.4 °C 34442.4 hPa SSW 12.9 km/h 20.8 km/h 93 % 0 mm
02:37 -6.8 °C -7.4 °C 34428.8 hPa SW 12.9 km/h 20.8 km/h 93 % 0 mm
02:47 -6.8 °C -7.4 °C 34442.4 hPa WSW 15.6 km/h 20.8 km/h 93 % 0 mm
02:52 -6.8 °C -7.4 °C 34442.4 hPa WSW 12.9 km/h 20.8 km/h 93 % 0 mm
03:02 -6.8 °C -7.4 °C 34442.4 hPa SW 18.2 km/h 23.3 km/h 93 % 0 mm
03:07 -6.8 °C -7.4 °C 34442.4 hPa SW 10.3 km/h 23.3 km/h 93 % 0 mm
03:17 -6.7 °C -7.4 °C 34442.4 hPa West 10.3 km/h 20.8 km/h 93 % 0 mm
03:22 -6.7 °C -7.4 °C 34442.4 hPa West 10.3 km/h 20.8 km/h 93 % 0 mm
03:27 -6.7 °C -7.4 °C 34442.4 hPa SSW 7.7 km/h 20.8 km/h 93 % 0 mm
03:32 -6.7 °C -7.4 °C 34442.4 hPa WSW 15.6 km/h 20.8 km/h 93 % 0 mm
03:37 -6.7 °C -7.4 °C 34442.4 hPa West 10.3 km/h 18.2 km/h 93 % 0 mm
03:42 -6.7 °C -7.4 °C 34442.4 hPa WSW 7.7 km/h 18.2 km/h 93 % 0 mm
03:47 -6.7 °C -7.4 °C 34442.4 hPa WSW 12.9 km/h 18.2 km/h 93 % 0 mm
03:52 -6.7 °C -7.4 °C 34442.4 hPa SW 7.7 km/h 15.6 km/h 93 % 0 mm
03:57 -6.7 °C -7.4 °C 34442.4 hPa WSW 10.3 km/h 12.9 km/h 93 % 0 mm
04:02 -6.7 °C -7.4 °C 34442.4 hPa SW 5.1 km/h 15.6 km/h 93 % 0 mm
04:07 -6.7 °C -7.4 °C 34442.4 hPa SW 10.3 km/h 18.2 km/h 93 % 0 mm
04:12 -6.7 °C -7.4 °C 34442.4 hPa West 15.6 km/h 20.8 km/h 93 % 0 mm
04:17 -6.7 °C -7.4 °C 34442.4 hPa SW 7.7 km/h 20.8 km/h 93 % 0 mm
04:22 -6.7 °C -7.4 °C 34442.4 hPa WSW 10.3 km/h 20.8 km/h 93 % 0 mm
04:27 -6.7 °C -7.4 °C 34442.4 hPa WSW 12.9 km/h 18.2 km/h 93 % 0 mm
04:32 -6.7 °C -7.3 °C 34442.4 hPa SW 5.1 km/h 18.2 km/h 94 % 0 mm
04:37 -6.7 °C -7.2 °C 34442.4 hPa WSW 7.7 km/h 15.6 km/h 94 % 0 mm
04:42 -6.7 °C -7.2 °C 34442.4 hPa WSW 5.1 km/h 15.6 km/h 94 % 0 mm
04:47 -6.7 °C -7.2 °C 34442.4 hPa WNW 12.9 km/h 15.6 km/h 94 % 0 mm
04:52 -6.7 °C -7.3 °C 34442.4 hPa SSW 5.1 km/h 15.6 km/h 94 % 0 mm
04:57 -6.7 °C -7.3 °C 34442.4 hPa SW 7.7 km/h 15.6 km/h 94 % 0 mm
05:02 -6.7 °C -7.3 °C 34442.4 hPa SW 7.7 km/h 15.6 km/h 94 % 0 mm
05:07 -6.7 °C -7.3 °C 34442.4 hPa West 10.3 km/h 15.6 km/h 94 % 0 mm
05:12 -6.7 °C -7.2 °C 34428.8 hPa SW 7.7 km/h 15.6 km/h 94 % 0 mm
05:17 -6.7 °C -7.3 °C 34428.8 hPa SW 5.1 km/h 15.6 km/h 94 % 0 mm
05:22 -6.7 °C -7.3 °C 34428.8 hPa WSW 10.3 km/h 12.9 km/h 94 % 0 mm
05:27 -6.7 °C -7.3 °C 34428.8 hPa SSW 5.1 km/h 15.6 km/h 94 % 0 mm
05:32 -6.7 °C -7.3 °C 34428.8 hPa SW 5.1 km/h 15.6 km/h 94 % 0 mm
05:37 -6.7 °C -7.3 °C 34428.8 hPa SW 10.3 km/h 15.6 km/h 94 % 0 mm
05:42 -6.7 °C -7.3 °C 34428.8 hPa SW 5.1 km/h 15.6 km/h 94 % 0 mm
05:47 -6.7 °C -7.3 °C 34428.8 hPa SW 7.7 km/h 15.6 km/h 94 % 0 mm
05:52 -6.7 °C -7.3 °C 34428.8 hPa SW 5.1 km/h 15.6 km/h 94 % 0 mm
05:57 -6.7 °C -7.3 °C 34428.8 hPa WSW 7.7 km/h 18.2 km/h 94 % 0 mm
06:02 -6.7 °C -7.3 °C 34428.8 hPa SW 10.3 km/h 18.2 km/h 94 % 0 mm
06:12 -6.7 °C -7.3 °C 34442.4 hPa WSW 7.7 km/h 15.6 km/h 94 % 0 mm
06:17 -6.7 °C -7.3 °C 34442.4 hPa WSW 2.6 km/h 15.6 km/h 94 % 0 mm
06:27 -6.7 °C -7.3 °C 34442.4 hPa WSW 5.1 km/h 12.9 km/h 94 % 0 mm
06:32 -6.7 °C -7.3 °C 34442.4 hPa WSW 2.6 km/h 12.9 km/h 94 % 0 mm
06:42 -6.7 °C -7.3 °C 34442.4 hPa WNW 2.6 km/h 10.3 km/h 94 % 0 mm
06:47 -6.7 °C -7.3 °C 34442.4 hPa WSW 7.7 km/h 10.3 km/h 94 % 0 mm
06:52 -6.7 °C -7.3 °C 34442.4 hPa West 7.7 km/h 12.9 km/h 94 % 0 mm
06:57 -6.8 °C -7.4 °C 34442.4 hPa NW 7.7 km/h 23.3 km/h 94 % 0 mm
07:02 -6.9 °C -7.6 °C 34442.4 hPa WSW 23.3 km/h 23.3 km/h 93 % 0 mm
07:07 -6.9 °C -7.6 °C 34442.4 hPa WNW 10.3 km/h 23.3 km/h 93 % 0 mm
07:12 -6.8 °C -7.6 °C 34452.6 hPa West 5.1 km/h 23.3 km/h 92 % 0 mm
07:17 -6.8 °C -7.6 °C 34452.6 hPa WNW 7.7 km/h 23.3 km/h 92 % 0 mm
07:22 -6.8 °C -7.6 °C 34452.6 hPa WNW 12.9 km/h 18.2 km/h 92 % 0 mm
07:27 -6.8 °C -7.7 °C 34452.6 hPa West 7.7 km/h 18.2 km/h 91 % 0 mm
07:32 -6.8 °C -7.7 °C 34462.7 hPa NW 10.3 km/h 20.8 km/h 91 % 0 mm
07:37 -6.8 °C -7.7 °C 34462.7 hPa WNW 5.1 km/h 20.8 km/h 91 % 0 mm
07:42 -6.8 °C -7.7 °C 34462.7 hPa SW 5.1 km/h 20.8 km/h 91 % 0 mm
07:47 -6.9 °C -7.7 °C 34462.7 hPa West 7.7 km/h 23.3 km/h 91 % 0 mm
07:52 -6.9 °C -7.7 °C 34462.7 hPa West 5.1 km/h 23.3 km/h 91 % 0 mm
07:57 -6.9 °C -7.7 °C 34462.7 hPa West 2.6 km/h 23.3 km/h 91 % 0 mm
08:02 -6.9 °C -7.8 °C 34462.7 hPa WSW 7.7 km/h 23.3 km/h 91 % 0 mm
08:07 -6.9 °C -7.8 °C 34462.7 hPa West 7.7 km/h 25.9 km/h 91 % 0 mm
08:12 -7 °C -7.8 °C 34462.7 hPa WSW 7.7 km/h 25.9 km/h 91 % 0 mm
08:17 -7 °C -7.9 °C 34462.7 hPa NW 10.3 km/h 25.9 km/h 90 % 0 mm
08:22 -7 °C -7.9 °C 34476.3 hPa WSW 7.7 km/h 20.8 km/h 90 % 0 mm
08:27 -7 °C -7.9 °C 34476.3 hPa West 5.1 km/h 20.8 km/h 90 % 0 mm
08:32 -7 °C -7.9 °C 34476.3 hPa West 12.9 km/h 23.3 km/h 90 % 0 mm
08:37 -7.1 °C -8 °C 34476.3 hPa WNW 2.6 km/h 23.3 km/h 90 % 0 mm
08:42 -7.1 °C -8 °C 34476.3 hPa West 12.9 km/h 23.3 km/h 90 % 0 mm
08:47 -7.1 °C -8 °C 34476.3 hPa West 10.3 km/h 20.8 km/h 90 % 0 mm
08:52 -7.1 °C -8.1 °C 34476.3 hPa West 10.3 km/h 23.3 km/h 90 % 0 mm
08:57 -7.1 °C -8.1 °C 34476.3 hPa WSW 7.7 km/h 23.3 km/h 90 % 0 mm
09:02 -7.1 °C -8 °C 34476.3 hPa WSW 7.7 km/h 18.2 km/h 90 % 0 mm
09:07 -7.1 °C -8 °C 34486.4 hPa West 12.9 km/h 20.8 km/h 90 % 0 mm
09:12 -7 °C -7.9 °C 34486.4 hPa West 12.9 km/h 20.8 km/h 90 % 0 mm
09:17 -7 °C -8.1 °C 34486.4 hPa WSW 12.9 km/h 20.8 km/h 89 % 0 mm
09:22 -7 °C -8.1 °C 34486.4 hPa WSW 10.3 km/h 20.8 km/h 89 % 0 mm
09:27 -6.9 °C -7.9 °C 34486.4 hPa WSW 10.3 km/h 20.8 km/h 89 % 0 mm
09:32 -6.9 °C -7.9 °C 34486.4 hPa WSW 20.8 km/h 18.2 km/h 89 % 0 mm
09:37 -6.9 °C -8 °C 34486.4 hPa WSW 10.3 km/h 23.3 km/h 88 % 0 mm
09:42 -6.8 °C -7.9 °C 34496.6 hPa WNW 12.9 km/h 23.3 km/h 88 % 0 mm
09:52 -6.8 °C -8.1 °C 34496.6 hPa WNW 12.9 km/h 20.8 km/h 87 % 0 mm
09:57 -6.8 °C -8.1 °C 34496.6 hPa SW 5.1 km/h 20.8 km/h 86 % 0 mm
10:07 -6.7 °C -8.1 °C 34496.6 hPa WNW 5.1 km/h 20.8 km/h 85 % 0 mm
10:12 -6.6 °C -8.2 °C 34496.6 hPa NW 5.1 km/h 18.2 km/h 84 % 0 mm
10:22 -6.4 °C -8 °C 34496.6 hPa WSW 15.6 km/h 18.2 km/h 84 % 0 mm
10:27 -6.4 °C -8.1 °C 34510.1 hPa NW 5.1 km/h 18.2 km/h 83 % 0 mm
10:37 -6.3 °C -8.1 °C 34510.1 hPa NW 7.7 km/h 15.6 km/h 82 % 0 mm
10:42 -6.4 °C -8.2 °C 34510.1 hPa WNW 12.9 km/h 15.6 km/h 82 % 0 mm
10:47 -6.4 °C -8.1 °C 34510.1 hPa SW 7.7 km/h 15.6 km/h 83 % 0 mm
10:52 -6.4 °C -8.1 °C 34510.1 hPa Calm   18.2 km/h 83 % 0 mm
10:57 -6.3 °C -7.9 °C 34510.1 hPa WNW 5.1 km/h 18.2 km/h 83 % 0 mm
11:02 -6.3 °C -8.1 °C 34510.1 hPa NW 10.3 km/h 12.9 km/h 82 % 0 mm
11:07 -6.3 °C -8.1 °C 34510.1 hPa West 12.9 km/h 12.9 km/h 82 % 0 mm
11:12 -6.2 °C -8 °C 34510.1 hPa West 18.2 km/h 12.9 km/h 82 % 0 mm
11:17 -6.2 °C -7.9 °C 34520.3 hPa NW 5.1 km/h 18.2 km/h 82 % 0 mm
11:22 -6.1 °C -7.8 °C 34520.3 hPa West 2.6 km/h 18.2 km/h 82 % 0 mm
Weerstation Almere Buiten
Gegevens verzameld door Weather Underground - 4 mb

Script ontwikkeld door  Jim McMurry - jmcmurry@mwt.net Aangepast voor de template door  Wim van der Kuil - Leuven-Template.eu

U vindt ons ook hier:

Het Weer Aktueel

UK Metoffice

European Weather Network

Weather Underground

AWEKAS